This is the latest recevied weather packets stored in our database for station/object JE0GNV-13. If no packets are shown the sender has not sent any weather packets the latest 10 day(s).
| Time | Temp. | Humidity | Pressure | Rain* | Wind** | Luminosity | Snow |
|---|---|---|---|---|---|---|---|
| 1777246200 | 10.56° C | 97% | 1005.5 hPa | 1.02 mm | - | - | - |
| 1777245600 | 10° C | 98% | 1005.6 hPa | 1.52 mm | - | - | - |
| 1777245000 | 10° C | 97% | 1005.6 hPa | 2.03 mm | - | - | - |
| 1777244401 | 10° C | 97% | 1006.2 hPa | 2.29 mm | - | - | - |
| 1777243802 | 10° C | 97% | 1006.3 hPa | 2.54 mm | - | - | - |
| 1777243202 | 9.44° C | 97% | 1006.3 hPa | 2.54 mm | - | - | - |
| 1777242602 | 9.44° C | 97% | 1006.4 hPa | 3.05 mm | - | - | - |
| 1777242001 | 9.44° C | 97% | 1006.7 hPa | 3.05 mm | - | - | - |
| 1777241401 | 9.44° C | 97% | 1006.8 hPa | 3.05 mm | - | - | - |
| 1777240800 | 9.44° C | 96% | 1006.8 hPa | 3.3 mm | - | - | - |
| 1777240202 | 9.44° C | 96% | 1006.8 hPa | 3.3 mm | - | - | - |
| 1777239602 | 9.44° C | 96% | 1006.9 hPa | 3.81 mm | - | - | - |
| 1777239001 | 9.44° C | 96% | 1006.9 hPa | 3.56 mm | - | - | - |
| 1777238401 | 9.44° C | 95% | 1006.7 hPa | 3.81 mm | - | - | - |
| 1777237802 | 9.44° C | 95% | 1006.6 hPa | 4.06 mm | - | - | - |
| 1777237200 | 10° C | 94% | 1006.8 hPa | 4.32 mm | - | - | - |
| 1777236601 | 10° C | 93% | 1007 hPa | 4.06 mm | - | - | - |
| 1777236001 | 10° C | 91% | 1007 hPa | 3.56 mm | - | - | - |
| 1777235401 | 10° C | 92% | 1007.1 hPa | 3.81 mm | - | - | - |
| 1777234802 | 10° C | 92% | 1007.1 hPa | 3.3 mm | - | - | - |
| 1777234200 | 10° C | 93% | 1007.4 hPa | 3.05 mm | - | - | - |
| 1777233601 | 10° C | 93% | 1007.3 hPa | 2.54 mm | - | - | - |
| 1777233001 | 10° C | 92% | 1007.4 hPa | 2.79 mm | - | - | - |
| 1777232402 | 10° C | 91% | 1007.4 hPa | 2.79 mm | - | - | - |
| 1777231802 | 10.56° C | 90% | 1007.5 hPa | 2.03 mm | - | - | - |
* Rain latest hour (hover to see other rain measurements)
** Current wind speed in m/s (hover to see current wind gust speed)